SCP
0 0 0 0 0 0 0 0 0 0 0 0 0 0 0 0 0 0 0 0 0 0 0 0 0 0 0 0 0 0 0 0 0 0 0 0 0 0 0 0 0 0 0 0
0 0 0 0 0 0 0 0 0 0 0 0 0 0 0 0 0 0 0 0 0 0 0 0 0 0 0 0 0 0 0 0 0 0 0 0 0 0 0 0 0 0 0 0
0 0 0 0 0 0 0 0 0 0 0 0 0 0 0 0 0 0 0 0 0 0 0 0 0 0 0 0 0 0 0 0 0 0 0 0 0 0 0 0 0 0 0 0
0 0 0 0 0 0 0 0 0 0 0 0 0 0 0 0 0 0 0 0 0 0 0 0 0 0 0 0 0 0 0 0 0 0 0 0 0 0 0 0 0 0 0 0
0 0 0 0 0 0 0 0 0 0 0 0 0 0 0 0 0 0 0 0 0 0 0 0 0 0 0 0 0 0 0 0 0 0 0 0 0 0 0 0 0 0 0 0
0 0 0 0 0 0 0 0 0 0 0 0 0 0 0 0 0 0 0 0 0 0 0 0 0 0 0 0 0 0 0 0 0 0 0 0 0 0 0 0 0 0 0 0
0 0 0 0 0 0 0 0 0 0 0 0 0 0 0 0 0 0 0 0 0 0 0 0 0 0 0 0 0 0 0 0 0 0 0 0 0 0 0 0 0 0 0 0
0 0 0 0 0 0 0 0 0 0 0 0 0 0 0 0 0 0 0 0 0 0 0 0 0 0 0 0 0 0 0 0 0 0 0 0 0 0 0 0 0 0 0 0
0 0 0 0 0 0 0 0 0 0 0 0 0 0 0 0 0 0 0 0 0 0 0 0 0 0 0 0 0 0 0 0 0 0 0 0 0 0 0 0 0 0 0 0
0 0 0 0 0 0 0 0 0 0 0 0 0 0 0 0 0 0 0 0 0 0 0 0 0 0 0 0 0 0 0 0 0 0 0 0 0 0 0 0 0 0 0 0
0 0 0 0 0 0 0 0 0 0 0 0 0 0 0 0 0 0 0 0 0 0 0 0 0 0 0 0 0 0 0 0 0 0 0 0 0 0 0 0 0 0 0 0
0 0 0 0 0 0 0 0 0 0 0 0 0 0 0 0 0 0 0 0 0 0 0 0 0 0 0 0 0 0 0 0 0 0 0 0 0 0 0 0 0 0 0 0
0 0 0 0 0 0 0 0 0 0 0 0 0 0 0 0 0 0 0 0 0 0 0 0 0 0 0 0 0 0 0 0 0 0 0 0 0 0 0 0 0 0 0 0
0 0 0 0 0 0 0 0 0 0 0 0 0 0 0 0 0 0 0 0 0 0 0 0 0 0 0 0 0 0 0 0 0 0 0 0 0 0 0 0 0 0 0 0
0 0 0 0 0 0 0 0 0 0 0 0 0 0 0 0 0 0 0 0 0 0 0 0 0 0 0 0 0 0 0 0 0 0 0 0 0 0 0 0 0 0 0 0
0 0 0 0 0 0 0 0 0 0 0 0 0 0 0 0 0 0 0 0 0 0 0 0 0 0 0 0 0 0 0 0 0 0 0 0 0 0 0 0 0 0 0 0
0 0 0 0 0 0 0 0 0 0 0 0 0 0 0 0 0 0 0 0 0 0 0 0 0 0 0 0 0 0 0 0 0 0 -0 -0 0 0 0 0 0 0 0 0
0 0 0 0 0 0 0 0 0 0 0 0 0 0 0 0 0 0 0 0 0 0 0 0 0 0 0 0 0 0 0 0 0 0 0 0 0 0 0 0 0 0 0 0
0 0 0 0 0 0 0 0 0 0 0 0 0 0 0 0 0 0 0 0 0 0 0 0 0 0 0 0 0 0 0 0 0 0 0 0 0 0 0 0 0 0 0 0
0 0 0 0 0 0 0 0 0 0 0 0 0 0 0 0 0 0 0 0 0 0 0 0 0 0 0 0 0 0 0 0 0 0 0 0 0 0 0 0 0 0 0 0
0 0 0 0 0 0 0 0 0 0 0 0 0 0 0 0 0 0 0 0 0 0 0 0 0 0 0 0 0 0 0 0 0 0 0 0 0 0 0 0 0 0 0 0
0 0 0 0 0 0 0 0 0 0 0 0 0 0 0 0 0 0 0 0 0 0 0 0 0 0 0 0 0 0 0 0 0 0 0 0 0 0 0 0 0 0 0 0
0 0 0 0 0 0 0 0 0 0 0 0 0 0 0 0 0 0 0 0 0 0 0 0 0 0 0 0 0 0 0 0 0 0 0 0 0 0 0 0 0 0 0 0
0 0 0 0 0 0 0 0 0 0 0 0 0 0 0 0 0 0 0 0 0 0 0 0 0 0 0 0 0 0 0 0 0 0 0 0 0 0 0 0 0 0 0 0
0 0 0 0 0 0 0 0 0 0 0 0 0 0 0 0 0 0 0 0 0 0 0 0 0 0 0 0 0 0 0 0 0 0 0 0 0 0 0 0 0 0 0 0
0 0 0 0 0 0 0 0 0 0 0 0 0 0 0 0 0 0 0 0 0 0 0 0 0 0 0 0 0 0 0 0 0 0 0 0 0 0 0 0 0 0 0 0
0 0 0 0 0 0 0 0 0 0 0 0 0 0 0 0 0 0 0 0 0 0 0 0 0 0 0 0 0 0 0 0 0 0 0 0 0 0 0 0 0 0 0 0
Wind_Speed
14 16 17 17 16 13 12 11 11 12 14 14 10 9 8 8 7 7 6 5 3 2 1 1 1 2 2 3 3 3 2 2 3 2 2 2 2 2 3 3 4 4 5 7
15 16 16 15 14 13 12 10 11 12 11 6 3 5 8 8 7 6 5 3 2 1 1 2 3 3 2 2 2 2 3 3 4 3 2 2 2 3 3 3 3 3 5 7
14 15 14 12 8 7 8 9 10 9 6 2 1 3 5 5 5 5 3 2 1 2 2 3 4 3 3 1 1 1 3 4 4 4 4 4 4 4 4 4 4 4 5 7
13 13 12 5 3 5 8 8 7 5 1 0 1 3 4 4 5 4 3 3 2 0 2 3 4 3 3 3 1 2 3 4 4 4 4 4 5 5 5 5 4 4 4 6
9 10 11 7 1 2 7 9 5 2 1 2 3 4 6 7 7 6 5 3 2 2 3 3 3 3 3 2 1 2 4 4 4 3 3 3 4 5 5 5 5 4 4 5
11 13 13 6 4 2 7 5 4 2 2 1 3 4 3 10 9 7 4 3 3 3 2 2 1 0 0 2 3 4 4 4 4 3 3 2 2 2 2 3 4 4 5 6
13 13 9 6 4 4 7 2 1 5 5 3 3 2 6 9 7 6 5 5 5 4 2 1 1 2 3 5 5 5 4 4 4 4 2 2 1 1 1 1 2 3 5 6
11 11 4 5 4 6 3 1 5 6 6 2 5 7 8 8 7 6 5 6 5 3 2 2 2 3 4 5 4 4 3 3 4 4 4 4 2 2 1 1 1 2 5 6
6 7 6 6 5 4 5 5 6 7 4 3 6 7 7 8 6 5 4 3 2 3 4 4 3 3 5 4 4 3 3 3 2 3 4 4 4 3 2 2 2 3 5 5
8 8 8 8 7 6 7 7 6 7 5 5 6 7 7 7 6 5 4 3 3 3 5 5 5 5 6 5 4 3 3 2 2 2 3 4 3 3 3 2 3 3 4 4
11 10 11 12 12 10 8 7 7 8 7 6 7 7 7 7 6 5 4 4 4 4 4 6 6 6 6 6 4 3 3 3 3 3 3 2 3 4 4 5 4 3 3 3
12 10 10 8 7 8 8 9 8 9 8 8 8 8 8 8 7 6 5 5 5 5 6 6 7 6 6 5 4 3 3 3 3 4 4 4 5 4 5 4 3 3 3 3
11 10 11 10 10 11 9 10 10 10 9 8 9 9 9 8 8 7 7 7 7 7 8 8 8 8 7 6 4 3 3 3 3 4 5 5 6 6 5 3 2 3 4 3
12 12 13 13 13 12 11 10 12 12 12 10 9 10 9 9 9 9 9 9 8 8 8 8 8 8 8 6 5 4 4 4 4 4 5 6 6 7 7 8 7 6 7 8
13 12 13 12 13 13 12 11 11 12 13 12 11 11 11 10 10 10 10 10 9 9 9 9 9 8 8 8 6 6 6 4 4 3 4 4 5 6 5 5 5 6 7 7
10 12 13 11 10 10 11 12 13 13 13 13 13 12 12 12 11 11 11 11 11 11 10 9 8 8 8 7 6 5 4 1 2 4 5 5 4 4 2 2 2 1 4 7
10 9 8 8 8 8 10 12 13 13 14 14 14 14 14 14 13 12 12 12 11 10 9 9 9 9 9 8 8 7 7 7 7 6 7 5 4 3 1 1 2 1 2 6
1 3 6 7 8 9 9 11 12 13 14 14 16 16 15 15 13 13 12 12 11 11 11 10 10 10 10 10 7 8 7 7 8 8 7 6 4 4 3 4 4 3 3 6
2 4 5 7 8 9 10 11 12 12 13 15 15 15 15 14 13 12 12 12 12 12 11 12 14 12 10 10 10 7 8 8 8 8 7 5 5 5 5 6 5 4 3 2
3 5 7 9 10 11 12 12 13 13 12 14 14 14 14 15 14 14 12 12 12 10 11 12 13 12 12 11 12 10 10 10 10 8 8 8 8 8 8 8 6 5 3 2
5 7 8 10 11 12 13 14 14 14 12 13 13 14 14 14 15 13 12 13 10 10 11 15 12 11 12 11 13 12 11 10 10 10 9 8 8 8 8 7 6 3 2 2
8 9 11 13 14 14 13 13 15 16 14 12 15 16 14 14 15 14 13 11 10 13 13 11 10 13 14 14 12 12 12 11 10 9 9 9 8 8 7 6 4 3 2 3
12 12 13 14 15 16 17 16 16 15 13 11 11 13 15 13 14 14 13 11 11 13 11 10 11 15 18 14 11 11 12 12 11 10 9 8 8 6 5 5 4 3 3 5
13 15 15 15 15 16 16 16 16 14 14 11 9 11 12 13 12 13 11 12 16 15 11 10 14 16 18 12 12 12 11 11 11 10 10 8 7 6 5 5 4 3 5 8
15 16 17 16 15 13 13 14 15 14 15 11 10 9 11 11 11 11 10 10 12 13 11 12 16 18 14 11 12 12 11 11 10 10 9 7 6 6 6 5 4 4 5 6
14 13 12 11 11 10 11 11 10 9 9 9 8 7 7 8 10 9 9 11 11 12 11 9 11 13 12 12 12 12 11 10 10 9 8 6 7 7 5 3 4 5 6 6
14 12 10 10 10 10 10 9 9 9 8 7 7 6 5 5 7 9 10 9 8 9 10 9 10 11 12 12 12 11 10 9 8 7 7 7 6 5 4 4 5 7 6 5
Wind_Direction
294 298 297 297 299 295 284 282 274 282 285 291 279 242 195 173 176 178 175 178 161 141 93 321 304 319 327 347 2 8 33 39 36 37 64 72 64 63 52 29 38 19 21 29
289 291 296 296 297 303 303 308 300 297 301 302 275 168 168 176 190 195 191 195 156 92 23 326 317 311 333 2 7 29 48 43 38 28 42 49 54 57 50 49 38 37 56 56
296 300 300 294 308 309 310 314 313 315 321 314 134 159 176 186 199 198 190 179 121 47 11 335 301 291 287 248 165 72 61 53 40 37 48 28 33 47 35 33 34 36 70 78
284 290 288 299 336 303 300 302 311 318 336 135 125 154 162 172 180 175 176 150 127 1 326 299 278 267 256 231 179 109 77 63 49 37 46 44 46 42 31 29 30 36 77 94
287 291 297 305 287 303 312 308 328 340 12 139 150 180 200 189 184 186 184 173 187 249 279 275 266 269 256 223 154 111 93 79 62 50 54 61 59 46 31 23 19 33 68 89
272 288 296 307 110 359 298 281 49 27 321 245 222 249 233 175 175 172 171 188 231 252 256 244 252 313 161 108 105 97 89 81 67 56 64 86 83 63 38 23 15 29 55 59
262 279 298 77 85 296 292 29 35 311 305 259 226 119 114 142 157 164 185 206 229 241 218 176 130 120 105 95 95 92 95 90 71 45 51 98 125 134 99 25 30 52 74 66
279 274 297 62 319 325 5 344 285 294 292 222 150 145 154 159 161 176 199 213 217 203 158 147 135 122 108 97 94 94 100 95 77 47 38 67 96 112 108 82 101 96 92 83
293 313 333 291 293 296 281 267 278 283 273 192 182 179 172 159 167 187 204 222 211 184 160 155 151 136 122 114 116 119 123 112 83 64 56 59 73 89 93 87 93 96 102 100
258 269 288 296 287 250 244 246 257 264 242 203 200 189 176 170 176 189 204 201 202 197 171 166 163 145 131 132 133 135 136 134 123 94 76 63 52 65 74 77 93 104 107 110
281 272 267 266 267 259 244 233 237 249 233 209 203 195 180 179 184 186 187 179 186 189 178 171 165 150 145 146 149 147 148 152 147 136 119 108 86 58 59 60 53 62 86 108
283 291 283 283 289 271 236 222 228 243 235 211 203 199 189 185 175 175 181 179 182 176 171 164 164 163 158 160 165 171 181 185 175 165 158 155 145 131 58 72 83 69 68 81
285 286 285 283 277 272 248 217 211 220 229 222 207 200 194 182 167 176 186 184 183 173 167 164 162 166 169 174 181 187 196 187 192 182 168 178 178 171 165 167 209 243 232 216
283 281 276 273 272 276 271 237 212 209 210 213 208 200 196 184 176 183 191 187 182 175 169 169 170 172 176 180 192 212 219 183 210 200 188 189 188 196 187 178 185 198 213 223
264 265 267 261 252 247 251 247 225 213 205 203 203 199 198 190 185 187 191 189 182 183 182 182 183 181 187 192 197 219 239 217 209 221 220 203 202 212 198 186 191 182 173 181
268 275 280 278 270 256 244 241 231 222 210 201 202 199 198 195 190 191 192 193 189 194 193 193 193 189 197 209 204 218 223 195 237 246 246 209 213 243 203 166 214 205 160 161
255 269 287 302 291 272 256 249 235 223 217 207 202 201 198 198 195 194 195 195 195 200 198 197 201 201 204 207 216 231 221 188 200 239 256 247 214 217 232 257 262 257 91 118
336 336 334 330 323 309 286 266 248 229 219 215 206 203 202 200 200 196 195 195 195 202 206 204 203 205 210 209 208 235 241 198 191 220 237 240 226 220 237 247 252 251 169 155
5 339 329 325 323 318 310 296 275 251 227 218 212 204 201 201 198 196 193 196 199 203 203 208 210 207 209 212 207 211 241 248 216 209 224 219 215 230 244 256 258 261 266 190
344 336 330 326 324 323 315 306 292 271 244 221 211 204 201 201 198 197 196 202 207 210 200 201 204 206 214 208 208 219 220 231 241 234 224 223 223 224 231 240 244 250 253 268
309 313 315 315 315 312 310 309 303 283 260 232 209 202 200 197 198 198 201 210 204 199 205 203 202 205 208 208 201 222 230 227 226 232 235 233 233 232 232 232 231 225 221 257
319 315 311 308 305 300 300 300 300 293 271 240 215 204 199 196 199 201 201 209 210 200 206 214 208 207 206 205 210 218 225 233 235 229 228 231 235 237 232 219 203 194 214 248
308 306 303 300 297 293 291 291 293 295 284 254 220 203 200 197 201 206 209 204 213 211 206 215 212 200 191 201 215 217 220 226 233 235 231 229 231 226 207 186 173 190 235 257
292 293 292 292 291 287 285 283 286 289 287 273 235 207 197 197 200 206 207 205 207 206 208 214 209 191 186 202 214 222 225 223 225 230 232 228 223 202 171 163 177 215 241 250
286 287 288 286 283 279 278 275 276 277 276 270 251 220 204 204 206 202 202 206 201 193 205 205 191 183 189 209 216 220 224 228 229 225 218 209 190 164 159 175 206 236 247 247
287 285 283 280 280 277 277 276 272 272 278 277 264 239 218 206 204 200 196 200 195 192 203 198 184 188 202 211 219 224 226 222 216 215 210 177 161 158 165 186 229 244 246 240
283 279 274 273 275 274 274 274 273 267 261 267 284 285 264 228 210 206 203 203 196 195 204 206 192 192 206 215 220 222 223 222 212 186 165 152 150 154 169 202 234 243 239 229